Fairbanks, AK

5:17 PM AKDT on October 14, 2019 (GMT -0800)
Fairbanks International

Weather History for PAFA - May, 2019

Change the Weather History Date:

Friday, May 31, 2019

  Actual Average Record
Temperature  
Mean Temperature 59 °F 55 °F  
Max Temperature 65 °F 67 °F 84 °F (1958)
Min Temperature 53 °F 44 °F 30 °F (1933)
Degree Days  
Heating Degree Days 6 10  
Month to date heating degree days 339 486  
Since 1 July heating degree days 11601 13509  
Cooling Degree Days 0 0  
Month to date cooling degree days 1 1  
Year to date cooling degree days 1 1  
Growing Degree Days 8 (Base 50)    
Moisture  
Dew Point 46 °F    
Average Humidity 63    
Maximum Humidity 93    
Minimum Humidity 36    
Precipitation  
Precipitation 0.31 in 0.02 in 0.45 in (1981)
Month to date precipitation 1.01 0.60  
Year to date precipitation 3.49 2.16  
Snow  
Snow 0.00 in 0.00 in T in (1933)
Month to date snowfall T 0.9  
Since 1 July snowfall 57.5 65.0  
Snow Depth 0.00 in    
Sea Level Pressure  
Sea Level Pressure 29.68 in    
Wind  
Wind Speed 5 mph (SSW)    
Max Wind Speed 13 mph    
Max Gust Speed 17 mph    
Visibility 8 miles    
Events Rain    
T = Trace of Precipitation, MM = Missing Value Source: NWS Daily Summary

Daily Weather History Graph

Daily Weather History Graph

Search for Another Location

Airport or City:

Astronomy

May. 31, 2019 Rise Set
Actual Time 3:36 AM AKDT 12:04 AM AKDT
Civil Twilight Sun does not rise Sun does not rise
Nautical Twilight Sun does not rise Sun does not rise
Astronomical Twilight Sun does not rise Sun does not rise
Moon 4:19 AM AKDT (5/31) 7:35 PM AKDT (5/31)
Length of Visible Light 24h 00m
Length of Day
20h 27m
Waning Crescent, 8% of the Moon is Illuminated
May 31
Waning Crescent
Jun 3
New
Jun 9
First Quarter
Jun 17
Full
Jun 25
Last Quarter

Hourly Weather History & Observations

Time (AKDT) Temp. Dew Point Humidity Pressure Visibility Wind Dir Wind Speed Gust Speed Precip Events Conditions
12:53 AM 63.0 °F 39.9 °F 43% 29.69 in 10.0 mi NE 6.9 mph - N/A   Mostly Cloudy
1:53 AM 61.0 °F 39.9 °F 46% 29.68 in 10.0 mi NNE 8.1 mph - N/A   Mostly Cloudy
2:53 AM 62.1 °F 39.0 °F 43% 29.68 in 10.0 mi NE 4.6 mph - N/A   Mostly Cloudy
3:53 AM 61.0 °F 41.0 °F 48% 29.68 in 10.0 mi Calm Calm - N/A   Mostly Cloudy
4:53 AM 59.0 °F 44.1 °F 58% 29.68 in 10.0 mi Calm Calm - N/A   Mostly Cloudy
5:53 AM 57.9 °F 42.1 °F 56% 29.68 in 10.0 mi NE 3.5 mph - N/A   Mostly Cloudy
6:53 AM 60.1 °F 46.0 °F 60% 29.68 in 10.0 mi Calm Calm - N/A   Mostly Cloudy
7:53 AM 61.0 °F 43.0 °F 52% 29.68 in 10.0 mi ENE 3.5 mph - N/A   Mostly Cloudy
8:53 AM 60.1 °F 41.0 °F 49% 29.68 in 7.0 mi SE 3.5 mph - N/A   Mostly Cloudy
9:53 AM 60.1 °F 44.1 °F 55% 29.70 in 7.0 mi ENE 4.6 mph - N/A   Overcast
10:53 AM 62.1 °F 45.0 °F 53% 29.69 in 7.0 mi Calm Calm - N/A   Overcast
11:53 AM 63.0 °F 44.1 °F 50% 29.68 in 7.0 mi Variable 3.5 mph - N/A   Overcast
12:53 PM 64.0 °F 44.1 °F 48% 29.68 in 7.0 mi SW 4.6 mph - N/A   Overcast
1:53 PM 64.9 °F 45.0 °F 48% 29.66 in 10.0 mi SSW 9.2 mph - N/A   Overcast
2:53 PM 64.0 °F 43.0 °F 46% 29.66 in 10.0 mi SSW 9.2 mph 17.3 mph N/A   Overcast
3:53 PM 57.9 °F 46.9 °F 67% 29.67 in 8.0 mi West 12.7 mph - 0.02 in Rain Light Rain
4:53 PM 55.9 °F 51.1 °F 84% 29.67 in 10.0 mi SSW 5.8 mph - 0.05 in Rain Light Rain
5:53 PM 55.9 °F 51.1 °F 84% 29.67 in 10.0 mi SW 4.6 mph - 0.01 in Rain Light Rain
6:53 PM 55.9 °F 51.1 °F 84% 29.67 in 10.0 mi SW 4.6 mph - 0.00 in Rain Light Rain
7:53 PM 55.0 °F 51.1 °F 86% 29.67 in 8.0 mi SW 3.5 mph - 0.00 in Rain Light Rain
8:53 PM 54.0 °F 51.1 °F 90% 29.68 in 6.0 mi SSW 5.8 mph - 0.02 in Rain Light Rain
9:53 PM 53.1 °F 51.1 °F 93% 29.68 in 6.0 mi SW 4.6 mph - 0.06 in Rain Rain
10:53 PM 53.1 °F 50.0 °F 89% 29.69 in 7.0 mi SSW 3.5 mph - 0.07 in Rain Light Rain
11:53 PM 53.1 °F 51.1 °F 93% 29.69 in 4.0 mi SSW 3.5 mph - 0.03 in Rain Light Rain